EST,Max TemperatureF,Mean TemperatureF,Min TemperatureF,Max Dew PointF,MeanDew PointF,Min DewpointF,Max Humidity, Mean Humidity, Min Humidity, Max Sea Level PressureIn, Mean Sea Level PressureIn, Min Sea Level PressureIn, Max VisibilityMiles, Mean VisibilityMiles, Min VisibilityMiles, Max Wind SpeedMPH, Mean Wind SpeedMPH, Max Gust SpeedMPH,PrecipitationIn, CloudCover, Events, WindDirDegrees
2013-2-1,32,28,24,11,7,1,46,38,30,30.20,29.93,29.78,10,10,10,26,16,36,0.00,4,,287
2013-2-2,30,25,19,20,10,6,81,60,39,30.29,30.17,30.06,10,8,1,21,10,26,0.02,4,Snow,254
2013-2-3,31,26,21,22,18,14,92,71,49,30.04,29.87,29.76,10,8,2,12,5,14,0.02,7,Snow,325
2013-2-4,32,28,23,19,10,6,75,56,36,29.97,29.89,29.78,10,10,9,23,12,32,0.00,4,,272
2013-2-5,31,29,27,27,23,16,85,68,50,29.97,29.93,29.89,10,6,2,14,6,16,0.02,8,Snow,42
2013-2-6,40,34,28,28,21,5,85,61,37,30.34,30.06,29.90,10,8,4,22,10,31,T,4,,315
2013-2-7,33,28,23,23,10,4,63,47,31,30.50,30.42,30.33,10,10,10,16,6,21,0.00,6,,45
2013-2-8,36,31,25,32,28,23,92,78,64,30.31,29.82,29.52,10,3,0,32,20,48,2.21,8,Fog-Rain-Snow,40
2013-2-9,29,25,20,25,18,5,100,69,38,30.27,29.87,29.64,10,4,0,35,21,48,0.74,4,Fog-Snow,330
2013-2-10,34,23,11,18,7,-1,80,55,29,30.45,30.38,30.30,10,10,8,25,4,35,0.00,3,,333
2013-2-11,45,33,21,44,37,20,100,88,76,30.32,29.91,29.65,10,2,0,20,7,28,0.70,7,Fog-Rain,185
2013-2-12,43,37,30,37,27,21,100,75,49,29.94,29.82,29.69,10,10,3,24,11,33,0.00,4,,283
2013-2-13,43,32,21,30,23,18,92,69,45,29.92,29.80,29.68,10,9,1,10,3,15,0.02,4,Snow,328
2013-2-14,44,35,26,34,28,20,100,70,39,30.00,29.85,29.68,10,8,1,14,6,16,0.05,4,Snow,303
2013-2-15,45,39,32,36,34,30,96,83,70,30.02,29.97,29.92,10,7,2,18,7,23,0.00,3,Fog,199
2013-2-16,40,35,29,34,26,19,89,71,52,29.93,29.85,29.67,10,9,3,22,12,26,T,8,Snow,351
2013-2-17,31,24,17,22,12,1,81,56,31,29.91,29.67,29.57,10,6,1,32,22,47,0.10,6,Snow,327
2013-2-18,32,25,17,14,6,2,55,37,19,30.38,30.13,29.92,10,10,10,31,15,40,0.00,1,,283
2013-2-19,45,34,23,42,32,14,96,73,49,30.19,29.89,29.64,10,8,2,21,9,28,0.33,6,Rain,213
2013-2-20,40,33,25,24,13,8,64,52,39,29.94,29.81,29.68,10,10,10,28,17,37,0.00,3,,284
2013-2-21,33,28,23,14,12,9,59,50,41,30.26,30.02,29.93,10,10,9,28,18,38,T,1,,306
2013-2-22,38,32,25,28,22,15,75,64,52,30.38,30.32,30.23,10,10,9,22,8,29,T,6,Snow,53
2013-2-23,41,38,35,38,34,28,92,81,70,30.27,30.06,29.78,10,5,1,21,12,28,0.31,8,Rain,93
2013-2-24,45,39,32,35,31,26,92,75,57,29.92,29.78,29.70,10,8,2,22,13,29,T,8,Snow,335
2013-2-25,46,37,28,31,26,22,76,57,38,30.22,30.10,29.94,10,10,10,13,6,18,0.00,4,,337
2013-2-26,43,40,37,34,31,28,85,71,57,30.29,30.20,29.91,10,10,5,20,9,29,0.13,8,Rain,94
2013-2-27,49,43,37,46,42,33,93,82,70,29.91,29.61,29.50,10,4,0,35,16,48,1.04,7,Fog-Rain,109
2013-2-28,49,43,37,38,36,30,85,73,61,29.61,29.57,29.53,10,9,2,13,4,16,0.21,8,Rain,299